GW1728 Weather Reports


Display with metric or nautical units.
time (UTC)temp
F
wind
direction
speed
MPH
gust
MPH
rain 1hr
in
rain 24hr
in
rain mn
in
humidity
%
barometer
mb
20260903042233 54 232 5.0 6.0 0.00 0.05 0.05 72 1009.0
20260903041729 54 218 5.0 6.0 0.00 0.05 0.05 73 1009.2
20260903041225 53 219 5.0 6.0 0.00 0.05 0.05 76 1009.1
20260903040725 54 215 5.0 5.0 0.00 0.05 0.05 76 1009.0
20260903040219 53 214 3.0 3.0 0.00 0.05 0.05 75 1008.8
20260903035710 53 239 2.0 2.0 0.00 0.05 0.05 78 1008.8
20260903035206 53 244 2.0 2.0 0.00 0.05 0.05 76 1008.6
20260903034705 53 234 4.0 5.0 0.00 0.05 0.05 77 1008.6
20260903034200 52 224 1.0 2.0 0.00 0.05 0.05 80 1008.7
20260903033656 51 228 2.0 3.0 0.00 0.05 0.05 82 1008.7
20260903033156 51 209 0.0 0.0 0.00 0.05 0.05 83 1009.1
20260903032651 51 211 0.0 0.0 0.00 0.05 0.05 83 1008.8
20260903032146 51 213 0.0 0.0 0.00 0.05 0.05 83 1008.8
20260903031642 51 204 0.0 0.0 0.00 0.05 0.05 83 1008.7
20260903031136 51 173 0.0 1.0 0.00 0.05 0.05 83 1009.0
20260903030632 51 186 0.0 0.0 0.00 0.05 0.05 83 1009.1
20260903030127 52 221 0.0 0.0 0.00 0.05 0.05 82 1009.0
20260903025622 52 232 0.0 0.0 0.00 0.05 0.05 82 1008.8
20260903025118 52 235 0.0 0.0 0.00 0.05 0.05 81 1008.5
20260903024613 53 235 0.0 0.0 0.00 0.05 0.05 80 1008.4
20260903024106 53 235 0.0 0.0 0.00 0.05 0.05 78 1008.4
20260903023603 53 238 0.0 0.0 0.00 0.05 0.05 78 1008.2
20260903023058 54 241 0.0 0.0 0.00 0.05 0.05 78 1008.2
20260903022557 54 242 0.0 0.0 0.00 0.05 0.05 77 1008.3
20260903022056 55 242 0.0 0.0 0.00 0.05 0.05 76 1008.2
20260903021551 55 246 0.0 0.0 0.00 0.05 0.05 74 1008.2
20260903021051 56 247 0.0 0.0 0.00 0.05 0.05 73 1008.3
20260903020547 57 244 0.0 0.0 0.00 0.05 0.05 72 1008.5
20260903020041 58 239 0.0 0.0 0.00 0.05 0.05 69 1008.2
20260903015537 59 239 0.0 0.0 0.00 0.05 0.05 69 1008.4
20260903015032 59 224 0.0 0.0 0.00 0.05 0.05 68 1008.4
20260903014531 60 225 0.0 0.0 0.00 0.05 0.05 68 1008.6
20260903014026 60 224 0.0 1.0 0.00 0.05 0.05 67 1008.4
20260903013525 60 242 0.0 0.0 0.00 0.05 0.05 67 1007.9
20260903013020 61 350 2.0 2.0 0.00 0.05 0.05 67 1008.0
20260903012514 61 242 0.0 0.0 0.00 0.05 0.05 66 1008.4
20260903012013 61 224 0.0 0.0 0.00 0.05 0.05 64 1008.5
20260903011507 62 232 1.0 1.0 0.00 0.05 0.05 61 1008.8
20260903011002 62 317 0.0 0.0 0.00 0.05 0.05 61 1008.7
20260903010457 62 251 0.0 0.0 0.00 0.05 0.05 59 1008.8
20260903005955 63 261 0.0 0.0 0.00 0.05 0.05 64 1008.4
20260903005450 64 262 1.0 1.0 0.00 0.05 0.05 55 1008.1
20260903004946 64 243 0.0 0.0 0.00 0.05 0.05 58 1008.0
20260903004441 64 233 1.0 2.0 0.00 0.05 0.05 54 1007.7
20260903003937 65 232 0.0 0.0 0.00 0.05 0.05 53 1007.7
20260903003437 64 225 0.0 0.0 0.00 0.05 0.05 51 1007.4
20260903002932 65 230 0.0 0.0 0.00 0.05 0.05 56 1007.3
20260903002427 65 350 1.0 1.0 0.00 0.05 0.05 53 1006.8
20260903001927 65 237 0.0 0.0 0.00 0.05 0.05 51 1006.8
20260903001427 65 272 4.0 5.0 0.00 0.05 0.05 50 1006.8
20260903000926 65 223 5.0 6.0 0.00 0.05 0.05 50 1006.5
20260903000422 64 265 2.0 3.0 0.00 0.05 0.05 50 1005.8
20260902235919 65 248 2.0 3.0 0.00 0.05 0.05 49 1005.6
20260902235414 65 308 6.0 10.0 0.00 0.05 0.05 49 1005.7
20260902234909 64 208 7.0 9.0 0.00 0.05 0.05 49 1006.0
20260902234404 64 210 7.0 13.0 0.00 0.05 0.05 49 1006.5
20260902233903 64 242 10.0 13.0 0.00 0.05 0.05 50 1006.9
20260902233357 64 268 10.0 13.0 0.00 0.05 0.05 50 1007.1
20260902232856 64 195 15.0 23.0 0.00 0.05 0.05 49 1007.2
20260902232351 64 239 20.0 23.0 0.00 0.05 0.05 49 1007.4
20260902231851 64 242 17.0 22.0 0.00 0.05 0.05 50 1007.5
20260902231346 64 253 20.0 26.0 0.00 0.05 0.05 51 1007.6
20260902230841 64 275 25.0 31.0 0.00 0.05 0.05 50 1007.4
20260902230340 63 238 22.0 25.0 0.00 0.05 0.05 53 1007.0
20260902225834 63 227 30.0 34.0 0.00 0.05 0.05 53 1007.0
20260902225329 63 243 29.0 33.0 0.00 0.05 0.05 53 1007.0
20260902224828 63 241 24.0 32.0 0.00 0.05 0.05 57 1007.0
20260902224323 62 205 25.0 31.0 0.00 0.05 0.05 59 1007.1
20260902223819 62 228 22.0 25.0 0.00 0.05 0.05 60 1007.2
20260902223313 61 221 17.0 27.0 0.00 0.05 0.05 62 1007.3
20260902222813 62 234 15.0 17.0 0.12 0.05 0.05 66 1006.7
20260902222307 63 221 24.0 27.0 0.05 0.04 0.04 69 1005.5
20260902221801 64 262 0.0 0.0 0.00 0.03 0.03 70 1003.6
20260902221300 69 267 5.0 6.0 0.07 0.03 0.03 59 1003.7
20260902220756 73 262 0.0 1.0 0.19 0.03 0.03 40 1003.7
20260902220255 73 344 7.0 8.0 0.12 0.02 0.02 51 1003.8
20260902215751 79 162 12.0 13.0 0.00 0.00 0.00 39 1003.7
20260902215246 81 170 10.0 11.0 0.00 0.00 0.00 33 1003.6
20260902214742 82 169 5.0 6.0 0.00 0.00 0.00 31 1003.7
20260902214241 82 161 6.0 7.0 0.00 0.00 0.00 30 1003.7
20260902213736 83 219 4.0 5.0 0.00 0.00 0.00 33 1003.8
20260902213231 83 233 7.0 10.0 0.00 0.00 0.00 31 1003.7
20260902212730 82 217 8.0 9.0 0.00 0.00 0.00 31 1003.9
20260902212227 82 226 5.0 7.0 0.00 0.00 0.00 31 1004.0
20260902211722 84 197 8.0 11.0 0.00 0.00 0.00 30 1004.2
20260902211218 84 235 6.0 7.0 0.00 0.00 0.00 30 1004.1
20260902210712 82 245 8.0 10.0 0.00 0.00 0.00 30 1004.0
20260902210208 83 228 3.0 5.0 0.00 0.00 0.00 30 1003.9
20260902205706 84 216 4.0 5.0 0.00 0.00 0.00 29 1004.2
20260902205201 84 196 11.0 15.0 0.00 0.00 0.00 31 1004.4
20260902204656 84 228 11.0 13.0 0.00 0.00 0.00 30 1004.6
20260902204156 83 200 4.0 5.0 0.00 0.00 0.00 30 1004.7
20260902203651 83 187 11.0 13.0 0.00 0.00 0.00 30 1004.9
20260902203146 82 230 4.0 5.0 0.00 0.00 0.00 30 1004.9
20260902202641 83 121 6.0 7.0 0.00 0.00 0.00 28 1005.0
20260902202138 83 178 4.0 5.0 0.00 0.00 0.00 29 1005.1
20260902201634 82 204 1.0 2.0 0.00 0.00 0.00 30 1005.2
20260902201133 82 217 6.0 7.0 0.00 0.00 0.00 31 1005.3
20260902200628 82 206 3.0 3.0 0.00 0.00 0.00 30 1005.5
20260902200124 82 232 10.0 13.0 0.00 0.00 0.00 33 1005.6
20260902195619 82 184 4.0 6.0 0.00 0.00 0.00 32 1005.7
20260902195118 82 235 3.0 3.0 0.00 0.00 0.00 33 1005.7
20260902194612 81 220 3.0 5.0 0.00 0.00 0.00 34 1005.7
20260902194108 79 216 3.0 3.0 0.00 0.00 0.00 32 1005.9
20260902193604 80 217 1.0 2.0 0.00 0.00 0.00 34 1006.1
20260902193103 79 202 4.0 5.0 0.00 0.00 0.00 36 1005.9
20260902192602 78 226 10.0 10.0 0.00 0.00 0.00 34 1006.2
20260902192100 79 247 6.0 8.0 0.00 0.00 0.00 35 1006.3
20260902191556 80 214 6.0 8.0 0.00 0.00 0.00 35 1006.2
20260902191050 80 228 3.0 6.0 0.00 0.00 0.00 35 1006.2
20260902190546 80 201 3.0 3.0 0.00 0.00 0.00 33 1006.2
20260902190041 79 234 6.0 9.0 0.00 0.00 0.00 36 1006.2
20260902185537 79 191 5.0 6.0 0.00 0.00 0.00 36 1006.3
20260902185033 78 215 5.0 7.0 0.00 0.00 0.00 36 1006.5
20260902184527 77 165 6.0 7.0 0.00 0.00 0.00 37 1006.4
20260902184023 77 198 5.0 8.0 0.00 0.00 0.00 37 1006.7
20260902183519 77 211 6.0 7.0 0.00 0.00 0.00 36 1006.7
20260902183015 77 178 6.0 7.0 0.00 0.00 0.00 39 1006.8
20260902182511 77 201 3.0 3.0 0.00 0.00 0.00 36 1006.9
20260902182006 77 230 5.0 6.0 0.00 0.00 0.00 38 1006.9
20260902181503 77 204 5.0 6.0 0.00 0.00 0.00 37 1007.0
20260902180957 76 223 4.0 5.0 0.00 0.00 0.00 38 1007.0
20260902180457 77 236 6.0 8.0 0.00 0.00 0.00 38 1007.0
20260902175952 77 203 5.0 6.0 0.00 0.00 0.00 38 1007.0
20260902175447 77 185 6.0 9.0 0.00 0.00 0.00 37 1007.2
20260902174943 77 216 7.0 9.0 0.00 0.00 0.00 37 1007.2
20260902174440 75 242 6.0 8.0 0.00 0.00 0.00 40 1007.3
20260902173935 75 205 8.0 10.0 0.00 0.00 0.00 40 1007.5
20260902173434 75 231 7.0 8.0 0.00 0.00 0.00 40 1007.6
20260902172929 75 229 7.0 8.0 0.00 0.00 0.00 43 1007.6
20260902172429 74 218 9.0 10.0 0.00 0.00 0.00 42 1007.7
20260902171924 74 203 7.0 8.0 0.00 0.00 0.00 43 1007.4
20260902171419 73 193 8.0 8.0 0.00 0.00 0.00 44 1007.9
20260902170915 73 222 8.0 8.0 0.00 0.00 0.00 44 1007.7
20260902170410 73 208 9.0 11.0 0.00 0.00 0.00 45 1007.5
20260902165906 73 212 10.0 11.0 0.00 0.00 0.00 45 1007.5
20260902165405 73 193 5.0 6.0 0.00 0.00 0.00 46 1007.7
20260902164900 72 207 5.0 6.0 0.00 0.00 0.00 47 1007.5
20260902164355 72 203 3.0 3.0 0.00 0.00 0.00 50 1007.5
20260902163854 71 172 3.0 5.0 0.00 0.00 0.00 49 1007.5
20260902163349 70 174 3.0 3.0 0.00 0.00 0.00 51 1007.7
20260902162848 70 178 4.0 5.0 0.00 0.00 0.00 53 1007.7
20260902162342 69 186 3.0 3.0 0.00 0.00 0.00 53 1007.7
20260902161837 69 193 1.0 2.0 0.00 0.00 0.00 54 1007.6
20260902161332 69 170 2.0 2.0 0.00 0.00 0.00 52 1007.9
20260902160828 69 222 2.0 2.0 0.00 0.00 0.00 52 1007.9
20260902160324 68 226 4.0 5.0 0.00 0.00 0.00 54 1007.9
20260902155822 68 198 4.0 5.0 0.00 0.00 0.00 55 1007.7
20260902155321 67 188 3.0 3.0 0.00 0.00 0.00 57 1007.7
20260902154816 68 188 4.0 5.0 0.00 0.00 0.00 53 1007.7
20260902154312 68 169 4.0 5.0 0.00 0.00 0.00 53 1007.9
20260902153810 67 198 3.0 5.0 0.00 0.00 0.00 55 1008.2
20260902153309 66 227 3.0 3.0 0.00 0.00 0.00 56 1008.1
20260902152806 67 168 3.0 5.0 0.00 0.00 0.00 55 1008.2
20260902152302 67 212 4.0 5.0 0.00 0.00 0.00 55 1008.2
20260902151801 66 202 3.0 3.0 0.00 0.00 0.00 55 1008.3
20260902151257 67 206 5.0 6.0 0.00 0.00 0.00 55 1008.4
20260902150752 67 197 4.0 5.0 0.00 0.00 0.00 57 1008.4
20260902150248 67 216 0.0 0.0 0.00 0.00 0.00 53 1008.5
20260902145747 67 214 0.0 0.0 0.00 0.00 0.00 53 1008.5
20260902145243 66 220 0.0 0.0 0.00 0.00 0.00 56 1008.6
20260902144738 65 221 0.0 0.0 0.00 0.00 0.00 63 1008.6
20260902144234 63 219 0.0 0.0 0.00 0.00 0.00 71 1008.7
20260902143729 61 224 0.0 0.0 0.00 0.00 0.00 74 1008.7
20260902143224 60 226 0.0 0.0 0.00 0.00 0.00 77 1008.6
20260902142714 59 228 0.0 0.0 0.00 0.00 0.00 78 1008.7
20260902142210 59 234 0.0 0.0 0.00 0.00 0.00 78 1008.7
20260902141709 58 235 0.0 0.0 0.00 0.00 0.00 79 1008.7
20260902141205 57 237 0.0 0.0 0.00 0.00 0.00 80 1008.7
20260902140700 56 248 0.0 0.0 0.00 0.00 0.00 80 1009.0
20260902140155 56 262 0.0 0.0 0.00 0.00 0.00 80 1008.8
20260902135654 56 273 0.0 0.0 0.00 0.00 0.00 80 1009.1
20260902135149 56 264 0.0 0.0 0.00 0.00 0.00 78 1008.8
20260902134645 56 239 0.0 0.0 0.00 0.00 0.00 78 1009.0
20260902134144 56 240 0.0 0.0 0.00 0.00 0.00 78 1009.1
20260902133639 56 243 0.0 0.0 0.00 0.00 0.00 78 1009.0
20260902133133 57 279 0.0 0.0 0.00 0.00 0.00 75 1009.0
20260902132629 57 257 1.0 1.0 0.00 0.00 0.00 75 1009.1
20260902132124 56 243 0.0 0.0 0.00 0.00 0.00 74 1008.8
20260902131621 57 238 0.0 0.0 0.00 0.00 0.00 74 1008.7
20260902131115 57 238 0.0 0.0 0.00 0.00 0.00 74 1008.6
20260902130611 57 236 2.0 2.0 0.00 0.00 0.00 73 1008.8
20260902130106 57 359 1.0 2.0 0.00 0.00 0.00 71 1008.7
20260902125602 57 23 2.0 2.0 0.00 0.00 0.00 70 1008.6
20260902125057 57 275 0.0 0.0 0.00 0.00 0.00 70 1008.7
20260902124554 57 272 0.0 0.0 0.00 0.00 0.00 71 1008.8
20260902124054 57 269 0.0 0.0 0.00 0.00 0.00 69 1008.6
20260902123549 57 303 1.0 1.0 0.00 0.00 0.00 68 1008.5
20260902123044 57 251 1.0 1.0 0.00 0.00 0.00 67 1008.5
20260902122543 57 224 0.0 0.0 0.00 0.00 0.00 67 1008.8
20260902122039 57 230 0.0 0.0 0.00 0.00 0.00 68 1008.6
20260902121534 57 203 1.0 2.0 0.00 0.00 0.00 70 1008.8
20260902121029 57 186 2.0 3.0 0.00 0.00 0.00 72 1008.7
20260902120525 57 172 3.0 3.0 0.00 0.00 0.00 72 1008.6
20260902120021 58 255 0.0 0.0 0.00 0.00 0.00 70 1008.5
20260902115516 58 252 1.0 1.0 0.00 0.00 0.00 69 1008.3
20260902115012 58 257 0.0 0.0 0.00 0.00 0.00 68 1008.4
20260902114508 59 274 1.0 1.0 0.00 0.00 0.00 67 1008.1
20260902114002 59 274 0.0 0.0 0.00 0.00 0.00 65 1008.3
20260902113458 59 273 0.0 0.0 0.00 0.00 0.00 65 1008.4
20260902112957 59 278 0.0 0.0 0.00 0.00 0.00 65 1008.4
20260902112453 58 293 0.0 0.0 0.00 0.00 0.00 65 1008.6
20260902111949 58 309 1.0 1.0 0.00 0.00 0.00 67 1008.5
20260902111446 58 326 1.0 2.0 0.00 0.00 0.00 65 1008.7
20260902110941 58 269 1.0 1.0 0.00 0.00 0.00 64 1009.0
20260902110437 58 302 2.0 2.0 0.00 0.00 0.00 63 1008.7
20260902105932 58 234 1.0 1.0 0.00 0.00 0.00 64 1009.0
20260902105427 58 279 1.0 1.0 0.00 0.00 0.00 63 1009.1
20260902104921 58 253 0.0 0.0 0.00 0.00 0.00 62 1009.1
20260902104418 59 255 1.0 1.0 0.00 0.00 0.00 61 1009.1
20260902103917 59 231 4.0 5.0 0.00 0.00 0.00 61 1009.2
20260902103412 60 225 7.0 8.0 0.00 0.00 0.00 57 1009.4
20260902102908 59 264 5.0 6.0 0.00 0.00 0.00 59 1009.5
20260902102405 57 249 2.0 2.0 0.00 0.00 0.00 62 1009.3
20260902101900 57 239 1.0 1.0 0.00 0.00 0.00 63 1009.3
20260902101354 56 245 4.0 5.0 0.00 0.00 0.00 65 1009.4
20260902100854 55 254 2.0 3.0 0.00 0.00 0.00 67 1009.3
20260902100348 55 262 2.0 3.0 0.00 0.00 0.00 68 1009.3
20260902095843 55 268 4.0 6.0 0.00 0.00 0.00 67 1009.3
20260902095342 55 265 5.0 7.0 0.00 0.00 0.00 68 1009.0
20260902094837 55 238 7.0 9.0 0.00 0.00 0.00 69 1009.2
20260902094334 55 230 8.0 9.0 0.00 0.00 0.00 69 1009.0
20260902093833 54 219 8.0 9.0 0.00 0.00 0.00 70 1009.2
20260902093328 54 225 5.0 7.0 0.00 0.00 0.00 71 1009.4
20260902092827 53 235 5.0 6.0 0.00 0.00 0.00 73 1009.2
20260902092323 52 231 9.0 10.0 0.00 0.00 0.00 74 1009.3
20260902091817 53 188 3.0 3.0 0.00 0.00 0.00 74 1008.8
20260902091313 52 242 0.0 0.0 0.00 0.00 0.00 76 1008.7
20260902090809 53 241 0.0 0.0 0.00 0.00 0.00 73 1009.1
20260902090308 53 241 0.0 0.0 0.00 0.00 0.00 73 1008.6
20260902085808 54 241 0.0 0.0 0.00 0.00 0.00 74 1009.1
20260902085306 53 241 0.0 0.0 0.00 0.00 0.00 73 1008.8
20260902084758 55 228 1.0 2.0 0.00 0.00 0.00 74 1008.8
20260902084255 55 298 0.0 0.0 0.00 0.00 0.00 72 1009.0
20260902083749 55 300 0.0 0.0 0.00 0.00 0.00 72 1009.2
20260902083244 56 278 0.0 0.0 0.00 0.00 0.00 68 1008.8
20260902082739 56 318 2.0 2.0 0.00 0.00 0.00 67 1009.1
20260902082236 56 286 0.0 1.0 0.00 0.00 0.00 67 1009.1
20260902081732 56 249 2.0 2.0 0.00 0.00 0.00 65 1009.0
20260902081227 57 259 0.0 0.0 0.00 0.00 0.00 62 1009.0
20260902080722 58 277 0.0 0.0 0.00 0.00 0.00 61 1008.8
20260902080219 58 247 0.0 0.0 0.00 0.00 0.00 59 1009.1
20260902075718 58 196 0.0 0.0 0.00 0.00 0.00 60 1009.0
20260902075215 58 158 0.0 0.0 0.00 0.00 0.00 61 1009.1
20260902074714 59 187 0.0 0.0 0.00 0.00 0.00 59 1009.0
20260902074210 59 188 0.0 0.0 0.00 0.00 0.00 58 1009.0
20260902073705 60 189 0.0 0.0 0.00 0.00 0.00 56 1008.8
20260902073201 61 189 0.0 0.0 0.00 0.00 0.00 55 1009.0
20260902072657 61 189 0.0 0.0 0.00 0.00 0.00 53 1009.0
20260902072153 62 189 0.0 0.0 0.00 0.00 0.00 52 1008.8
20260902071649 64 183 0.0 1.0 0.00 0.00 0.00 50 1008.8
20260902071144 62 131 1.0 1.0 0.00 0.00 0.00 51 1009.1
20260902070639 63 73 0.0 1.0 0.00 0.00 0.00 51 1009.2
20260902070139 62 17 2.0 2.0 0.00 0.00 0.00 51 1009.1
20260902065638 62 31 2.0 2.0 0.00 0.00 0.00 50 1009.0
20260902065134 62 27 3.0 3.0 0.00 0.00 0.00 51 1009.0
20260902064629 62 171 0.0 0.0 0.00 0.00 0.00 51 1008.8
20260902064125 61 159 0.0 0.0 0.00 0.00 0.00 53 1009.1
20260902063620 61 129 2.0 2.0 0.00 0.00 0.00 53 1008.8
20260902063115 61 125 1.0 2.0 0.00 0.00 0.00 53 1009.1
20260902062613 62 134 3.0 3.0 0.00 0.00 0.00 52 1009.1
20260902062109 63 143 4.0 5.0 0.00 0.00 0.00 51 1009.1
20260902061609 63 165 3.0 3.0 0.00 0.00 0.00 48 1009.3
20260902061105 62 199 0.0 0.0 0.00 0.00 0.00 51 1009.4
20260902060601 61 197 0.0 0.0 0.00 0.00 0.00 52 1009.2
20260902060057 60 181 1.0 1.0 0.00 0.00 0.00 55 1009.3
20260902055552 60 253 1.0 1.0 0.00 0.00 0.00 58 1009.1
20260902055048 61 151 0.0 0.0 0.00 0.00 0.00 54 1009.2
20260902054543 62 105 1.0 1.0 0.00 0.00 0.00 53 1009.2
20260902054038 62 129 0.0 1.0 0.00 0.00 0.00 53 1009.3
20260902053538 62 119 1.0 1.0 0.00 0.00 0.00 52 1009.4
20260902053033 62 111 2.0 2.0 0.00 0.00 0.00 51 1009.3
20260902052527 62 101 2.0 2.0 0.00 0.00 0.00 53 1009.3
20260902052024 62 159 0.0 0.0 0.00 0.00 0.00 51 1009.5
20260902051523 62 162 0.0 0.0 0.00 0.00 0.00 51 1009.5
20260902051022 62 163 0.0 0.0 0.00 0.00 0.00 51 1009.5
20260902050517 62 162 0.0 1.0 0.00 0.00 0.00 51 1009.3
20260902050012 62 149 0.0 0.0 0.00 0.00 0.00 50 1009.4
20260902045507 62 168 0.0 0.0 0.00 0.00 0.00 51 1009.3
20260902045004 63 168 0.0 0.0 0.00 0.00 0.00 50 1009.4
20260902044458 63 168 0.0 0.0 0.00 0.00 0.00 48 1009.2
20260902043954 63 168 0.0 0.0 0.00 0.00 0.00 48 1009.3
20260902043448 63 152 0.0 0.0 0.00 0.00 0.00 48 1009.3
20260902042944 63 158 0.0 0.0 0.00 0.00 0.00 48 1009.4